Location: Santa Cristina
(46.5667°N, 11.7167°E)
Time: 16:27:12
(UTC+00:00)

CZ-4C R/B - Pass Details

Date: 21 April 2021
Orbit: 463 x 634 km, 98.0° (Epoch: 11 May)

Event Time Altitude Azimuth Distance (km) Brightness Sun altitude
Exits shadow 02:22:56 36° 224° (SW) 1,000 4.1 -17.6°
Maximum altitude 02:24:01 43° 262° (W) 889 3.9 -17.5°
Drops below altitude 10° 02:28:15 10° 334° (NNW) 2,029 6.4 -16.9°
Sets 02:30:34 0° 341° (NNW) 2,943 7.3 -16.6°
